Location: Mahannah Oil Field
(37.4664°N, 96.6003°W)
Time: 01:26:09
(UTC+00:00)

deb Explorer IX - Pass Details

Date: 27 January 2021
Orbit: 537 x 1102 km, 38.8° (Epoch: 25 February)

Event Time Altitude Azimuth Distance (km) Brightness Sun altitude
Rises 03:37:26 0° 284° (WNW) 3,439 ? -46.1°
Enters shadow 03:40:13 10° 280° (W) 2,405 ? -46.6°
Reaches altitude 10° 03:40:14 10° 280° (W) 2,402 - -46.6°
Maximum altitude 03:45:39 52° 205° (SSW) 890 - -47.7°
Drops below altitude 10° 03:50:16 10° 129° (SE) 2,041 - -48.6°
Sets 03:52:28 0° 124° (SE) 2,877 - -49.0°
